Regional Weather Roundup
Issued by NWS Newport/Morehead, NC

Home | Current Version | Previous Version | Text Only | Print | Product List | Glossary On
Versions: 1 2 3 4 5 6 7 8 9 10 11 12 13 14 15 16 17 18 19 20 21 22 23 24 25 26 27 28 29 30 31 32 33 34 35 36 37 38 39 40 41 42 43 44 45 46 47 48 49 50
000
ASUS42 KMHX 040925
RWRMHX
WEATHER ROUNDUP FOR EASTERN NORTH CAROLINA
NATIONAL WEATHER SERVICE NEWPORT/MOREHEAD CITY NC
500 AM EDT SAT JUL 04 2015

NOTE: "FAIR" INDICATES FEW OR NO CLOUDS BELOW 12,000 FEET
WITH NO SIGNIFICANT WEATHER AND/OR OBSTRUCTIONS TO VISIBILITY

NCZ015>017-031-032-045>047-102-103-041000-
NORTH COAST

CITY           SKY/WX    TMP DP  RH WIND       PRES   REMARKS
EDENTON        CLOUDY    74  70  87 W10G16    29.89R
ELIZABETH CITY PTCLDY    74  71  91 SW14      29.86S
KITTY HAWK     PTSUNNY   75  72  91 SW12G18   29.85F
MANTEO         MOCLDY    75  72  90 W15G21    29.87S

$$

NCZ045>047-081-094-103-104-041000-
CENTRAL COAST

CITY           SKY/WX    TMP DP  RH WIND       PRES   REMARKS
FRISCO         PTCLDY    76  70  82 W15G21    29.91F
SWANQUARTER      N/A     77 N/A N/A W13G30    29.85S

$$

NCZ095-097-098-100-101-041000-
SOUTHERN COAST

CITY           SKY/WX    TMP DP  RH WIND       PRES   REMARKS
BEAUFORT       PTCLDY    79  73  82 W12       29.94R
CEDAR ISLAND     N/A     77 N/A N/A SW9G22    29.97S
JACKSONVILLE   NOT AVBL
PINEY ISLAND   PTSUNNY  N/A N/A N/A SW20G25   29.93R
WILMINGTON     CLEAR     78  72  81 SW10      29.95S


$$

NCZ011>013-027>030-043-044-078>080-089-090>093-098-041000-
COASTAL PLAIN

CITY           SKY/WX    TMP DP  RH WIND       PRES   REMARKS
AHOSKIE        MOCLDY   N/A N/A N/A CALM      29.88R
CLINTON        CLEAR     72  71  95 SW3       29.94S
ELIZABETHTOWN  CLEAR     74  70  86 SW7       29.96R
GOLDSBORO      CLEAR     73  71  92 SW5       29.90S FOG
GREENVILLE     PTCLDY    73  72  94 SW5       29.93S
HAVELOCK       PTCLDY    76  68  76 SW12      29.94S
KENANSVILLE    CLEAR     72  69  90 CALM      29.95S
KINSTON        PTCLDY    74  70  87 SW7       29.94R
NEW BERN       CLEAR     74  69  85 SW10      29.95R
RICHLANDS      CLEAR     72  64  78 SW8       29.96R
ROCKY MOUNT    CLEAR     71  69  93 SW5       29.90S
WASHINGTON     PTCLDY    73  70  90 SW8       29.92R
WHITEVILLE     CLEAR     75  72  89 SW7       29.97R

$$

AMZ130-135-150-152-154-156-158-170-250-252-270-ANZ085-086-088-633-658-670-041000-
MARINE OBSERVATIONS

STATION/POSITION TIME  TEMP    WIND        PRES    WAVE   SWELL
                       AIR SEA DIR/SP/G            HT/PER HT/PER
                 (UTC) (F)     (DEG/KT/KT) (MB)    (FT/S) (FT/S)
CHESAPEAKE LIGHT 0900   75     240/ 17/ 19 1010.2
64 E VA BEACH    0850   77 76  230/ 14/ 17 1010.0    4/ 8   3/ 8
DUCK             0900   76 74  230/ 15/ 20 1010.2
2 E DUCK         0811      77                N/A     2/ 8
OREGON INLET     0900   77 78  230/ 21/ 26 1011.4
13E OREGON INLT  0900      69                N/A     5/ 7
HATTERAS CG      0900   78 77  240/ 12/ 17 1012.4
DIAMOND BUOY     0850   81 81  250/ 27/ 31 1012.2    9/ 8   2/11
CAPE LOOKOUT     0900   79     240/ 18/ 23 1013.5
BEAUFORT LAB     0900   80 80  240/  6/ 13 1013.1
30 SE NEW RVR IN 0808   81 79  250/ 23/ 29 1014.4
27 SE WRIGHTSVLE 0900      80  250/ 23/ 27   N/A
5 SE WRIGHTSVLE  0808   80 78  240/ 19/ 23 1014.0
225 S CAPE HAT   0850   81 80  230/ 14/ 16 1018.8    5/ 6   3/ 7
41 SE CHARLESTON 0850   82 81  220/ 17/ 21 1016.3    6/ 5   2/ 9

$$


USA.gov is the U.S. government's official web portal to all federal, state and local government web resources and services.